Location: Harburg
(48.7667°N, 10.6667°E)
Time: 02:09:53
(UTC+00:00)

USA 238 DEB - Pass Details

Date: 18 September 2020
Orbit: 1006 x 1206 km, 63.4° (Epoch: 15 October)

Event Time Altitude Azimuth Distance (km) Brightness Sun altitude
Rises 19:32:18 0° 317° (NW) 3,941 8.0 -21.2°
Reaches altitude 10° 19:34:57 10° 316° (NW) 3,008 7.1 -21.6°
Maximum altitude 19:42:07 73° 233° (SW) 1,214 4.0 -22.6°
Enters shadow 19:45:39 34° 158° (SSE) 1,836 4.5 -23.1°
